Location: *
(46.1866°S, 178.5290°W)
Time: 12:11:32
(UTC+00:00)

Cosmos 1655 Rocket - Pass Details

Date: 19 May 2021
Orbit: 970 x 1007 km, 82.9° (Epoch: 14 June)

Event Time Altitude Azimuth Distance (km) Brightness Sun altitude
Rises 06:08:30 0° 3° (N) 3,690 7.1 -17.2°
Reaches altitude 10° 06:11:00 10° 5° (N) 2,755 6.4 -17.6°
Maximum altitude 06:17:17 68° 86° (E) 1,082 4.0 -18.7°
Drops below altitude 10° 06:23:41 10° 167° (SSE) 2,811 6.2 -19.8°
Sets 06:26:16 0° 169° (S) 3,771 6.9 -20.2°
